This is the latest recevied weather packets stored in our database for station/object AB4BJ-10. If no packets are shown the sender has not sent any weather packets the latest 10 day(s).
| Time | Temp. | Humidity | Pressure | Rain* | Wind** | Luminosity | Snow |
|---|---|---|---|---|---|---|---|
| 1788039282 | 25° C | 95% | 1014.7 hPa | 6.86 mm | - | - | - |
| 1788038982 | 25° C | 95% | 1014.7 hPa | 6.86 mm | - | - | - |
| 1788038382 | 25° C | 94% | 1014.8 hPa | 6.86 mm | - | - | - |
| 1788038081 | 25.56° C | 91% | 1014.9 hPa | 5.84 mm | - | - | - |
| 1788037781 | 26.11° C | 92% | 1014.7 hPa | 4.83 mm | - | - | - |
| 1788037481 | 26.67° C | 88% | 1014.8 hPa | 3.56 mm | - | - | - |
| 1788037183 | 27.22° C | 86% | 1014.7 hPa | 2.54 mm | - | - | - |
| 1788036979 | 27.78° C | 80% | 1014.8 hPa | 0 mm | - | - | - |
| 1788036880 | 27.78° C | 80% | 1014.8 hPa | 0 mm | - | - | - |
| 1788036580 | 27.22° C | 82% | 1014.9 hPa | 0 mm | - | - | - |
| 1788036279 | 27.22° C | 82% | 1014.7 hPa | 0 mm | - | - | - |
| 1788035979 | 27.22° C | 81% | 1014.7 hPa | 0 mm | - | - | - |
| 1788035679 | 27.78° C | 79% | 1014.8 hPa | 0 mm | - | - | - |
| 1788035380 | 28.89° C | 76% | 1014.8 hPa | 0 mm | - | - | - |
| 1788035128 | 28.89° C | 73% | 1014.8 hPa | 0 mm | - | - | - |
| 1788035078 | 28.89° C | 73% | 1014.8 hPa | 0 mm | - | - | - |
| 1788034876 | 29.44° C | 73% | 1014.8 hPa | 0 mm | - | - | - |
| 1788034778 | 29.44° C | 73% | 1014.8 hPa | 0 mm | - | - | - |
| 1788034478 | 29.44° C | 71% | 1014.9 hPa | 0 mm | - | - | - |
| 1788033877 | 31.11° C | 70% | 1015 hPa | 0 mm | - | - | - |
| 1788033577 | 31.67° C | 65% | 1015 hPa | 0 mm | - | - | - |
| 1788033278 | 32.22° C | 67% | 1015 hPa | 0 mm | - | - | - |
| 1788032676 | 32.22° C | 64% | 1015 hPa | 0 mm | - | - | - |
| 1788032376 | 32.78° C | 62% | 1015 hPa | 0 mm | - | - | - |
| 1788032076 | 32.78° C | 63% | 1015.1 hPa | 0 mm | - | - | - |
* Rain latest hour (hover to see other rain measurements)
** Current wind speed in m/s (hover to see current wind gust speed)